OBJECT AW, 68460

Orbit data source: Space-Track

You're viewing an Uncataloged Satellite

Recently launched and/or uncataloged satellites may have evolving metadata. Metadata may include but not limited to: Owner, Maufacturer, Bus, Motor, and Mission.

OBJECT AW, 68460 is a satellite in SSO that was launched on Mon, 30 Mar 2026 UTC via an FALCON 9 launch vehicle from the Air Force Western Test Range (AFWTR). Unknown objects in Earth's orbit typically refer to objects detected orbiting the Earth but have not yet been identified or cataloged. These objects could be anything from previously untracked satellites, spent rocket stages, debris from satellite collisions, or even natural meteoroids temporarily captured by Earth's gravity.

Loading next visibility...
Identifier
68460, 2026-067AW
Orbit
SSO
Country
Flag of TBDTBD
Related business
Manufacturer
Colorado
Mission
Operational spacecraft
Bus & Motor
CUBESAT 6UXL, Unknown motor
Mass
~10 kg wet, ~10 kg dry
Launch date (UTC)
2026-03-30 (1 month ago)
Launch vehicle
FALCON 9
Launch site
Air Force Western Test Range (AFWTR)
Object type
Unknown
Shape & HBR
Unknown shape, 1.1 m
Radar Cross Section
RCS unknown

Expand to show TLE details & history
Last TLE update: 14 hours ago

TLE from 14 hours ago
0 OBJECT AW
1 68460U 26067AW  26127.16911386  .00006550  00000-0  33362-3 0  9994
2 68460  97.4481  86.1599 0005336 192.4350 167.6753 15.17113460  5715
Epoch: 2026-05-07T04:03Z
TLE epoch observation values (Epoch: 2026-05-07T04:03:31.437Z)
Latitude
0.00001°
Longitude
160.2598°
Altitude
521.249 km
Speed
7.601 km/s
True Right ascension
05h 44m 38s
True Declination
0° 00' 00"
Sunlit
Object was in daylight at epoch
Visualization orbit readout
Latitude
Unknown
Longitude
Unknown
Altitude
Unknown
Speed
Unknown
Apparent Right ascension
Unknown
Apparent Declination
Unknown
Sunlit
N/A
Visualization observer readout
Local Sidereal Time
01:57:48
Azimuth
Unknown
Elevation
Unknown
Doppler factor
Unknown
Orbital elements
Apogee altitude
515.218 km
Perigee altitude
507.865 km
Semi-major axis
6,889.678 km
Eccentricity
0.00053
Inclination
97.4481°
RAAN
86.1599°
Arg. of periapsis
192.435°
True anomaly
167.68834°
Mean anomaly
167.6753°
Eccentric anomaly
167.68182°
Mean motion
3.79529 °/min
Orbital period
94.85 mins
BSTAR
0.00033362
Loading maneuver chart data...
Computing Atmospheric mass density...
Loading historical data...
Loading historical data...
Loading historical data...
Loading historical data...
Loading historical data...
Loading historical data...
Loading historical data...

Documentation

Showing up to 5 results
|